Time,TemperatureF,DewpointF,PressureIn,WindDirection,WindDirectionDegrees,WindSpeedMPH,WindSpeedGustMPH,Humidity,HourlyPrecipIn,Conditions,Clouds,dailyrainin,SoftwareType,DateUTC
2013-10-31 00:00:00,46.3,40.5,30.21,West,259,0.0,0.0,80,0.00,,---,0.00,VWS V14.00,2013-10-31 07:00:00,
2013-10-31 00:01:00,46.1,40.3,30.21,West,259,0.0,0.0,80,0.00,,---,0.00,VWS V14.00,2013-10-31 07:01:00,
2013-10-31 00:06:00,45.9,40.1,30.21,West,259,0.0,0.0,80,0.00,,---,0.00,VWS V14.00,2013-10-31 07:06:00,
2013-10-31 00:11:00,45.8,40.0,30.21,West,259,0.0,0.0,80,0.00,,---,0.00,VWS V14.00,2013-10-31 07:11:00,
2013-10-31 00:15:00,45.9,40.1,30.21,West,259,0.0,0.0,80,0.00,,---,0.00,VWS V14.00,2013-10-31 07:15:00,
2013-10-31 00:16:00,45.7,40.2,30.21,West,259,0.0,0.0,81,0.00,,---,0.00,VWS V14.00,2013-10-31 07:16:00,
2013-10-31 00:21:00,45.6,40.1,30.21,West,259,0.0,0.0,81,0.00,,---,0.00,VWS V14.00,2013-10-31 07:21:00,
2013-10-31 00:26:00,45.5,40.3,30.21,West,259,0.0,0.0,82,0.00,,---,0.00,VWS V14.00,2013-10-31 07:26:00,
2013-10-31 00:30:00,45.6,40.1,30.21,West,259,0.0,0.0,81,0.00,,---,0.00,VWS V14.00,2013-10-31 07:30:00,
2013-10-31 00:31:00,45.3,40.1,30.21,West,259,0.0,0.0,82,0.00,,---,0.00,VWS V14.00,2013-10-31 07:31:00,
2013-10-31 00:36:00,45.1,39.9,30.21,West,259,0.0,1.0,82,0.00,,---,0.00,VWS V14.00,2013-10-31 07:36:00,
2013-10-31 00:41:00,44.9,39.8,30.21,West,259,0.0,1.0,82,0.00,,---,0.00,VWS V14.00,2013-10-31 07:41:00,
2013-10-31 00:45:00,45.1,39.9,30.21,West,259,0.0,1.0,82,0.00,,---,0.00,VWS V14.00,2013-10-31 07:45:00,
2013-10-31 00:46:00,44.8,40.0,30.21,West,259,0.0,1.0,83,0.00,,---,0.00,VWS V14.00,2013-10-31 07:46:00,
2013-10-31 00:51:00,44.6,39.8,30.21,West,259,0.0,1.0,83,0.00,,---,0.00,VWS V14.00,2013-10-31 07:51:00,
2013-10-31 00:56:00,44.5,39.7,30.21,West,259,0.0,0.0,83,0.00,,---,0.00,VWS V14.00,2013-10-31 07:56:00,
2013-10-31 01:00:00,44.6,39.8,30.21,West,259,0.0,1.0,83,0.00,,---,0.00,VWS V14.00,2013-10-31 08:00:00,
2013-10-31 01:01:00,44.4,39.6,30.21,West,259,0.0,0.0,83,0.00,,---,0.00,VWS V14.00,2013-10-31 08:01:00,
2013-10-31 01:06:00,44.2,39.4,30.21,West,259,0.0,0.0,83,0.00,,---,0.00,VWS V14.00,2013-10-31 08:06:00,
2013-10-31 01:11:00,44.2,39.4,30.21,West,259,0.0,0.0,83,0.00,,---,0.00,VWS V14.00,2013-10-31 08:11:00,
2013-10-31 01:15:00,44.2,39.4,30.21,West,259,0.0,0.0,83,0.00,,---,0.00,VWS V14.00,2013-10-31 08:15:00,
2013-10-31 01:16:00,44.0,39.2,30.21,West,259,0.0,0.0,83,0.00,,---,0.00,VWS V14.00,2013-10-31 08:16:00,
2013-10-31 01:21:00,43.9,39.1,30.21,West,259,0.0,0.0,83,0.00,,---,0.00,VWS V14.00,2013-10-31 08:21:00,
2013-10-31 01:26:00,43.8,39.0,30.21,West,259,0.0,0.0,83,0.00,,---,0.00,VWS V14.00,2013-10-31 08:26:00,
2013-10-31 01:30:00,43.9,39.1,30.21,West,259,0.0,0.0,83,0.00,,---,0.00,VWS V14.00,2013-10-31 08:30:00,
2013-10-31 01:31:00,43.8,39.3,30.22,West,259,0.0,0.0,84,0.00,,---,0.00,VWS V14.00,2013-10-31 08:31:00,
2013-10-31 01:36:00,43.7,39.2,30.22,West,259,0.0,0.0,84,0.00,,---,0.00,VWS V14.00,2013-10-31 08:36:00,
2013-10-31 01:41:00,43.6,39.1,30.22,West,259,0.0,0.0,84,0.00,,---,0.00,VWS V14.00,2013-10-31 08:41:00,
2013-10-31 01:45:00,43.6,39.1,30.22,West,259,0.0,0.0,84,0.00,,---,0.00,VWS V14.00,2013-10-31 08:45:00,
2013-10-31 01:46:00,43.5,39.0,30.22,West,259,0.0,0.0,84,0.00,,---,0.00,VWS V14.00,2013-10-31 08:46:00,
2013-10-31 01:51:00,43.4,39.2,30.22,West,259,0.0,1.0,85,0.00,,---,0.00,VWS V14.00,2013-10-31 08:51:00,
2013-10-31 01:56:00,43.3,39.1,30.22,West,259,0.0,1.0,85,0.00,,---,0.00,VWS V14.00,2013-10-31 08:56:00,
2013-10-31 02:00:00,43.4,39.2,30.22,West,259,0.0,1.0,85,0.00,,---,0.00,VWS V14.00,2013-10-31 09:00:00,
2013-10-31 02:01:00,43.2,40.2,30.22,West,259,0.0,1.0,89,0.00,,---,0.00,VWS V14.00,2013-10-31 09:01:00,
2013-10-31 02:06:00,43.1,38.9,30.22,West,259,0.0,1.0,85,0.00,,---,0.00,VWS V14.00,2013-10-31 09:06:00,
2013-10-31 02:11:00,43.0,38.8,30.22,West,259,0.0,0.0,85,0.00,,---,0.00,VWS V14.00,2013-10-31 09:11:00,
2013-10-31 02:15:00,43.1,38.9,30.22,West,259,0.0,1.0,85,0.00,,---,0.00,VWS V14.00,2013-10-31 09:15:00,
2013-10-31 02:16:00,42.9,38.7,30.22,West,259,0.0,0.0,85,0.00,,---,0.00,VWS V14.00,2013-10-31 09:16:00,
2013-10-31 02:21:00,42.8,38.6,30.22,West,259,0.0,0.0,85,0.00,,---,0.00,VWS V14.00,2013-10-31 09:21:00,
2013-10-31 02:26:00,42.8,38.6,30.22,West,259,0.0,0.0,85,0.00,,---,0.00,VWS V14.00,2013-10-31 09:26:00,
2013-10-31 02:30:00,42.8,38.6,30.22,West,259,0.0,0.0,85,0.00,,---,0.00,VWS V14.00,2013-10-31 09:30:00,
2013-10-31 02:31:00,42.7,38.5,30.22,West,259,0.0,0.0,85,0.00,,---,0.00,VWS V14.00,2013-10-31 09:31:00,
2013-10-31 02:36:00,42.6,38.4,30.22,West,259,0.0,0.0,85,0.00,,---,0.00,VWS V14.00,2013-10-31 09:36:00,
2013-10-31 02:41:00,42.6,38.4,30.22,West,259,0.0,0.0,85,0.00,,---,0.00,VWS V14.00,2013-10-31 09:41:00,
2013-10-31 02:45:00,42.6,38.4,30.22,West,259,0.0,0.0,85,0.00,,---,0.00,VWS V14.00,2013-10-31 09:45:00,
2013-10-31 02:46:00,42.6,38.4,30.22,West,259,0.0,0.0,85,0.00,,---,0.00,VWS V14.00,2013-10-31 09:46:00,
2013-10-31 02:51:00,42.5,38.3,30.22,West,259,0.0,0.0,85,0.00,,---,0.00,VWS V14.00,2013-10-31 09:51:00,
2013-10-31 02:56:00,42.5,38.6,30.22,West,259,0.0,0.0,86,0.00,,---,0.00,VWS V14.00,2013-10-31 09:56:00,
2013-10-31 03:00:00,42.5,38.3,30.22,West,259,0.0,0.0,85,0.00,,---,0.00,VWS V14.00,2013-10-31 10:00:00,
2013-10-31 03:01:00,42.4,38.5,30.22,West,259,0.0,0.0,86,0.00,,---,0.00,VWS V14.00,2013-10-31 10:01:00,
2013-10-31 03:06:00,42.3,38.4,30.22,West,259,0.0,0.0,86,0.00,,---,0.00,VWS V14.00,2013-10-31 10:06:00,
2013-10-31 03:11:00,42.2,38.3,30.22,West,259,0.0,0.0,86,0.00,,---,0.00,VWS V14.00,2013-10-31 10:11:00,
2013-10-31 03:15:00,42.3,38.4,30.22,West,259,0.0,0.0,86,0.00,,---,0.00,VWS V14.00,2013-10-31 10:15:00,
2013-10-31 03:16:00,42.2,38.3,30.22,West,259,0.0,0.0,86,0.00,,---,0.00,VWS V14.00,2013-10-31 10:16:00,
2013-10-31 03:21:00,42.1,38.2,30.22,West,259,0.0,0.0,86,0.00,,---,0.00,VWS V14.00,2013-10-31 10:21:00,
2013-10-31 03:26:00,42.0,38.1,30.22,West,259,0.0,0.0,86,0.00,,---,0.00,VWS V14.00,2013-10-31 10:26:00,
2013-10-31 03:30:00,42.1,38.2,30.22,West,259,0.0,0.0,86,0.00,,---,0.00,VWS V14.00,2013-10-31 10:30:00,
2013-10-31 03:31:00,42.0,38.1,30.22,West,259,0.0,0.0,86,0.00,,---,0.00,VWS V14.00,2013-10-31 10:31:00,
2013-10-31 03:36:00,42.0,38.1,30.22,West,259,0.0,0.0,86,0.00,,---,0.00,VWS V14.00,2013-10-31 10:36:00,
2013-10-31 03:41:00,41.9,38.0,30.22,West,259,0.0,0.0,86,0.00,,---,0.00,VWS V14.00,2013-10-31 10:41:00,
2013-10-31 03:45:00,41.9,38.0,30.22,West,259,0.0,0.0,86,0.00,,---,0.00,VWS V14.00,2013-10-31 10:45:00,
2013-10-31 03:46:00,41.8,37.9,30.22,West,259,0.0,0.0,86,0.00,,---,0.00,VWS V14.00,2013-10-31 10:46:00,
2013-10-31 03:51:00,41.8,37.9,30.22,West,259,0.0,1.0,86,0.00,,---,0.00,VWS V14.00,2013-10-31 10:51:00,
2013-10-31 03:56:00,41.7,37.8,30.22,West,259,0.0,0.0,86,0.00,,---,0.00,VWS V14.00,2013-10-31 10:56:00,
2013-10-31 04:00:00,41.7,37.8,30.22,West,259,0.0,1.0,86,0.00,,---,0.00,VWS V14.00,2013-10-31 11:00:00,
2013-10-31 04:01:00,41.7,37.8,30.22,West,259,0.0,0.0,86,0.00,,---,0.00,VWS V14.00,2013-10-31 11:01:00,
2013-10-31 04:06:00,41.6,37.7,30.22,West,259,0.0,0.0,86,0.00,,---,0.00,VWS V14.00,2013-10-31 11:06:00,
2013-10-31 04:11:00,41.5,37.6,30.22,West,259,0.0,0.0,86,0.00,,---,0.00,VWS V14.00,2013-10-31 11:11:00,
2013-10-31 04:15:00,41.6,37.7,30.22,West,259,0.0,0.0,86,0.00,,---,0.00,VWS V14.00,2013-10-31 11:15:00,
2013-10-31 04:16:00,41.4,37.5,30.22,West,259,0.0,0.0,86,0.00,,---,0.00,VWS V14.00,2013-10-31 11:16:00,
2013-10-31 04:21:00,41.3,37.4,30.22,West,259,0.0,0.0,86,0.00,,---,0.00,VWS V14.00,2013-10-31 11:21:00,
2013-10-31 04:26:00,41.3,37.7,30.21,West,259,0.0,0.0,87,0.00,,---,0.00,VWS V14.00,2013-10-31 11:26:00,
2013-10-31 04:30:00,41.3,37.4,30.22,West,259,0.0,0.0,86,0.00,,---,0.00,VWS V14.00,2013-10-31 11:30:00,
2013-10-31 04:31:00,41.2,37.3,30.21,West,259,0.0,0.0,86,0.00,,---,0.00,VWS V14.00,2013-10-31 11:31:00,
2013-10-31 04:36:00,41.2,37.6,30.21,West,259,0.0,0.0,87,0.00,,---,0.00,VWS V14.00,2013-10-31 11:36:00,
2013-10-31 04:40:00,41.1,37.5,30.22,West,259,0.0,0.0,87,0.00,,---,0.00,VWS V14.00,2013-10-31 11:40:00,
2013-10-31 04:45:00,41.1,37.5,30.22,West,259,0.0,0.0,87,0.00,,---,0.00,VWS V14.00,2013-10-31 11:45:00,
2013-10-31 04:50:00,41.0,37.4,30.22,West,259,0.0,0.0,87,0.00,,---,0.00,VWS V14.00,2013-10-31 11:50:00,
2013-10-31 04:55:00,41.0,37.4,30.22,West,259,0.0,0.0,87,0.00,,---,0.00,VWS V14.00,2013-10-31 11:55:00,
2013-10-31 05:00:00,40.9,37.3,30.22,West,259,0.0,0.0,87,0.00,,---,0.00,VWS V14.00,2013-10-31 12:00:00,
2013-10-31 05:05:00,40.7,37.1,30.22,West,259,0.0,0.0,87,0.00,,---,0.00,VWS V14.00,2013-10-31 12:05:00,
2013-10-31 05:10:00,40.7,37.1,30.22,West,259,0.0,0.0,87,0.00,,---,0.00,VWS V14.00,2013-10-31 12:10:00,
2013-10-31 05:15:00,40.6,37.0,30.22,West,259,0.0,0.0,87,0.00,,---,0.00,VWS V14.00,2013-10-31 12:15:00,
2013-10-31 05:20:00,40.6,37.0,30.23,West,259,0.0,0.0,87,0.00,,---,0.00,VWS V14.00,2013-10-31 12:20:00,
2013-10-31 05:25:00,40.4,36.8,30.23,West,259,0.0,0.0,87,0.00,,---,0.00,VWS V14.00,2013-10-31 12:25:00,
2013-10-31 05:30:00,40.4,36.8,30.23,West,259,0.0,0.0,87,0.00,,---,0.00,VWS V14.00,2013-10-31 12:30:00,
2013-10-31 05:35:00,40.3,38.2,30.23,West,259,0.0,0.0,92,0.00,,---,0.00,VWS V14.00,2013-10-31 12:35:00,
2013-10-31 05:40:00,40.2,36.7,30.23,West,259,0.0,0.0,87,0.00,,---,0.00,VWS V14.00,2013-10-31 12:40:00,
2013-10-31 05:45:00,40.1,36.5,30.23,West,259,0.0,0.0,87,0.00,,---,0.00,VWS V14.00,2013-10-31 12:45:00,
2013-10-31 05:50:00,40.1,36.5,30.24,West,259,0.0,0.0,87,0.00,,---,0.00,VWS V14.00,2013-10-31 12:50:00,
2013-10-31 05:55:00,40.1,36.5,30.24,West,259,0.0,0.0,87,0.00,,---,0.00,VWS V14.00,2013-10-31 12:55:00,
2013-10-31 06:00:00,40.0,36.5,30.24,West,259,0.0,0.0,87,0.00,,---,0.00,VWS V14.00,2013-10-31 13:00:00,
2013-10-31 06:05:00,39.9,36.3,30.24,West,259,0.0,0.0,87,0.00,,---,0.00,VWS V14.00,2013-10-31 13:05:00,
2013-10-31 06:10:00,39.9,36.3,30.24,West,259,0.0,0.0,87,0.00,,---,0.00,VWS V14.00,2013-10-31 13:10:00,
2013-10-31 06:15:00,39.8,36.2,30.24,West,259,0.0,0.0,87,0.00,,---,0.00,VWS V14.00,2013-10-31 13:15:00,
2013-10-31 06:20:00,39.8,36.5,30.24,West,259,0.0,0.0,88,0.00,,---,0.00,VWS V14.00,2013-10-31 13:20:00,
2013-10-31 06:25:00,39.8,36.5,30.24,West,259,0.0,0.0,88,0.00,,---,0.00,VWS V14.00,2013-10-31 13:25:00,
2013-10-31 06:30:00,39.7,36.4,30.24,West,259,0.0,0.0,88,0.00,,---,0.00,VWS V14.00,2013-10-31 13:30:00,
2013-10-31 06:35:00,39.7,36.4,30.24,West,259,0.0,0.0,88,0.00,,---,0.00,VWS V14.00,2013-10-31 13:35:00,
2013-10-31 06:40:00,39.6,36.3,30.24,West,259,0.0,0.0,88,0.00,,---,0.00,VWS V14.00,2013-10-31 13:40:00,
2013-10-31 06:45:00,39.5,36.2,30.24,West,259,0.0,0.0,88,0.00,,---,0.00,VWS V14.00,2013-10-31 13:45:00,
2013-10-31 06:50:00,39.5,36.2,30.24,West,259,0.0,0.0,88,0.00,,---,0.00,VWS V14.00,2013-10-31 13:50:00,
2013-10-31 06:55:00,39.6,36.3,30.24,West,259,0.0,0.0,88,0.00,,---,0.00,VWS V14.00,2013-10-31 13:55:00,
2013-10-31 07:00:00,39.6,36.3,30.24,West,259,0.0,0.0,88,0.00,,---,0.00,VWS V14.00,2013-10-31 14:00:00,
2013-10-31 07:05:00,39.5,36.2,30.24,West,259,0.0,0.0,88,0.00,,---,0.00,VWS V14.00,2013-10-31 14:05:00,
2013-10-31 07:10:00,39.4,36.2,30.24,West,259,0.0,0.0,88,0.00,,---,0.00,VWS V14.00,2013-10-31 14:10:00,
2013-10-31 07:15:00,39.3,36.0,30.24,West,259,0.0,0.0,88,0.00,,---,0.00,VWS V14.00,2013-10-31 14:15:00,
2013-10-31 07:20:00,39.3,36.0,30.24,West,259,0.0,1.0,88,0.00,,---,0.00,VWS V14.00,2013-10-31 14:20:00,
2013-10-31 07:25:00,39.2,36.0,30.24,West,259,0.0,1.0,88,0.00,,---,0.00,VWS V14.00,2013-10-31 14:25:00,
2013-10-31 07:30:00,39.3,36.0,30.25,West,259,0.0,1.0,88,0.00,,---,0.00,VWS V14.00,2013-10-31 14:30:00,
2013-10-31 07:35:00,39.2,36.0,30.25,West,259,0.0,1.0,88,0.00,,---,0.00,VWS V14.00,2013-10-31 14:35:00,
2013-10-31 07:40:00,39.3,36.3,30.25,West,259,0.0,1.0,89,0.00,,---,0.00,VWS V14.00,2013-10-31 14:40:00,
2013-10-31 07:45:00,39.4,36.4,30.25,West,259,0.0,1.0,89,0.00,,---,0.00,VWS V14.00,2013-10-31 14:45:00,
2013-10-31 07:50:00,39.4,36.4,30.25,West,259,0.0,1.0,89,0.00,,---,0.00,VWS V14.00,2013-10-31 14:50:00,
2013-10-31 07:55:00,39.4,36.4,30.25,West,259,0.0,0.0,89,0.00,,---,0.00,VWS V14.00,2013-10-31 14:55:00,
2013-10-31 08:00:00,39.4,36.4,30.26,West,259,0.0,0.0,89,0.00,,---,0.00,VWS V14.00,2013-10-31 15:00:00,
2013-10-31 08:05:00,39.8,37.1,30.25,West,259,0.0,0.0,90,0.00,,---,0.00,VWS V14.00,2013-10-31 15:05:00,
2013-10-31 08:10:00,40.7,38.0,30.26,West,259,0.0,0.0,90,0.00,,---,0.00,VWS V14.00,2013-10-31 15:10:00,
2013-10-31 08:15:00,41.3,38.6,30.26,West,259,0.0,0.0,90,0.00,,---,0.00,VWS V14.00,2013-10-31 15:15:00,
2013-10-31 08:20:00,41.7,39.0,30.26,West,259,0.0,0.0,90,0.00,,---,0.00,VWS V14.00,2013-10-31 15:20:00,
2013-10-31 08:25:00,42.4,39.7,30.26,West,259,0.0,0.0,90,0.00,,---,0.00,VWS V14.00,2013-10-31 15:25:00,
2013-10-31 08:30:00,42.9,40.2,30.26,West,259,0.0,0.0,90,0.00,,---,0.00,VWS V14.00,2013-10-31 15:30:00,
2013-10-31 08:35:00,43.4,40.7,30.26,West,259,0.0,0.0,90,0.00,,---,0.00,VWS V14.00,2013-10-31 15:35:00,
2013-10-31 08:40:00,43.7,41.0,30.26,West,259,0.0,0.0,90,0.00,,---,0.00,VWS V14.00,2013-10-31 15:40:00,
2013-10-31 08:45:00,44.4,41.7,30.26,West,259,0.0,0.0,90,0.00,,---,0.00,VWS V14.00,2013-10-31 15:45:00,
2013-10-31 08:50:00,45.0,42.0,30.27,West,259,0.0,0.0,89,0.00,,---,0.00,VWS V14.00,2013-10-31 15:50:00,
2013-10-31 08:55:00,45.6,42.3,30.27,West,259,0.0,0.0,88,0.00,,---,0.00,VWS V14.00,2013-10-31 15:55:00,
2013-10-31 09:00:00,46.1,42.8,30.27,West,259,0.0,0.0,88,0.00,,---,0.00,VWS V14.00,2013-10-31 16:00:00,
2013-10-31 09:05:00,46.4,42.8,30.27,West,259,0.0,0.0,87,0.00,,---,0.00,VWS V14.00,2013-10-31 16:05:00,
2013-10-31 09:10:00,46.4,42.5,30.27,West,259,0.0,0.0,86,0.00,,---,0.00,VWS V14.00,2013-10-31 16:10:00,
2013-10-31 09:15:00,46.5,42.5,30.27,West,259,0.0,0.0,86,0.00,,---,0.00,VWS V14.00,2013-10-31 16:15:00,
2013-10-31 09:20:00,46.5,42.5,30.27,West,259,0.0,0.0,86,0.00,,---,0.00,VWS V14.00,2013-10-31 16:20:00,
2013-10-31 09:25:00,47.1,43.1,30.27,West,259,0.0,1.0,86,0.00,,---,0.00,VWS V14.00,2013-10-31 16:25:00,
2013-10-31 09:30:00,48.0,43.4,30.27,West,259,1.0,3.0,84,0.00,,---,0.00,VWS V14.00,2013-10-31 16:30:00,
2013-10-31 09:35:00,49.2,44.0,30.27,West,259,0.0,3.0,82,0.00,,---,0.00,VWS V14.00,2013-10-31 16:35:00,
2013-10-31 09:40:00,50.1,44.2,30.26,West,259,0.0,2.0,80,0.00,,---,0.00,VWS V14.00,2013-10-31 16:40:00,
2013-10-31 09:45:00,51.0,44.4,30.26,West,259,0.0,2.0,78,0.00,,---,0.00,VWS V14.00,2013-10-31 16:45:00,
2013-10-31 09:50:00,52.2,44.5,30.26,West,259,2.0,2.0,75,0.00,,---,0.00,VWS V14.00,2013-10-31 16:50:00,
2013-10-31 09:55:00,53.1,44.7,30.26,West,259,0.0,0.0,73,0.00,,---,0.00,VWS V14.00,2013-10-31 16:55:00,
2013-10-31 10:00:00,54.2,45.0,30.26,West,259,0.0,1.0,71,0.00,,---,0.00,VWS V14.00,2013-10-31 17:00:00,
2013-10-31 10:05:00,54.7,45.1,30.26,West,259,0.0,1.0,70,0.00,,---,0.00,VWS V14.00,2013-10-31 17:05:00,
2013-10-31 10:10:00,55.9,45.1,30.26,West,259,0.0,1.0,67,0.00,,---,0.00,VWS V14.00,2013-10-31 17:10:00,
2013-10-31 10:15:00,56.8,46.0,30.26,West,259,0.0,1.0,67,0.00,,---,0.00,VWS V14.00,2013-10-31 17:15:00,
2013-10-31 10:20:00,56.7,44.7,30.26,West,259,0.0,1.0,64,0.00,,---,0.00,VWS V14.00,2013-10-31 17:20:00,
2013-10-31 10:25:00,58.2,45.7,30.26,West,259,0.0,0.0,63,0.00,,---,0.00,VWS V14.00,2013-10-31 17:25:00,
2013-10-31 10:30:00,57.2,44.7,30.26,West,259,0.0,0.0,63,0.00,,---,0.00,VWS V14.00,2013-10-31 17:30:00,
2013-10-31 10:35:00,57.7,45.6,30.25,West,259,0.0,1.0,64,0.00,,---,0.00,VWS V14.00,2013-10-31 17:35:00,
2013-10-31 10:40:00,59.2,46.2,30.25,West,259,0.0,0.0,62,0.00,,---,0.00,VWS V14.00,2013-10-31 17:40:00,
2013-10-31 10:45:00,60.3,46.4,30.25,West,259,0.0,1.0,60,0.00,,---,0.00,VWS V14.00,2013-10-31 17:45:00,
2013-10-31 10:50:00,61.3,46.9,30.25,West,259,0.0,1.0,59,0.00,,---,0.00,VWS V14.00,2013-10-31 17:50:00,
2013-10-31 10:55:00,60.9,45.6,30.25,West,259,0.0,1.0,57,0.00,,---,0.00,VWS V14.00,2013-10-31 17:55:00,
2013-10-31 11:00:00,60.7,46.3,30.25,West,259,0.0,3.0,59,0.00,,---,0.00,VWS V14.00,2013-10-31 18:00:00,
2013-10-31 11:05:00,60.1,46.2,30.25,West,259,0.0,3.0,60,0.00,,---,0.00,VWS V14.00,2013-10-31 18:05:00,
2013-10-31 11:10:00,63.3,47.8,30.25,West,259,0.0,1.0,57,0.00,,---,0.00,VWS V14.00,2013-10-31 18:10:00,
2013-10-31 11:15:00,64.9,47.9,30.24,West,259,0.0,1.0,54,0.00,,---,0.00,VWS V14.00,2013-10-31 18:15:00,
2013-10-31 11:20:00,65.9,47.3,30.24,West,259,3.0,3.0,51,0.00,,---,0.00,VWS V14.00,2013-10-31 18:20:00,
2013-10-31 11:25:00,66.0,47.4,30.24,West,259,0.0,4.0,51,0.00,,---,0.00,VWS V14.00,2013-10-31 18:25:00,
2013-10-31 11:30:00,66.1,46.4,30.24,West,259,0.0,4.0,49,0.00,,---,0.00,VWS V14.00,2013-10-31 18:30:00,
2013-10-31 11:35:00,66.9,47.1,30.24,West,259,0.0,4.0,49,0.00,,---,0.00,VWS V14.00,2013-10-31 18:35:00,
2013-10-31 11:40:00,68.3,47.3,30.24,West,259,0.0,2.0,47,0.00,,---,0.00,VWS V14.00,2013-10-31 18:40:00,
2013-10-31 11:45:00,68.3,46.7,30.24,West,259,0.0,2.0,46,0.00,,---,0.00,VWS V14.00,2013-10-31 18:45:00,
2013-10-31 11:50:00,68.8,47.2,30.24,West,259,0.0,2.0,46,0.00,,---,0.00,VWS V14.00,2013-10-31 18:50:00,
2013-10-31 11:55:00,69.2,47.0,30.24,West,259,0.0,0.0,45,0.00,,---,0.00,VWS V14.00,2013-10-31 18:55:00,
2013-10-31 12:00:00,67.6,46.1,30.23,West,259,0.0,0.0,46,0.00,,---,0.00,VWS V14.00,2013-10-31 19:00:00,
2013-10-31 12:05:00,69.1,47.5,30.23,West,259,0.0,1.0,46,0.00,,---,0.00,VWS V14.00,2013-10-31 19:05:00,
2013-10-31 12:10:00,70.7,47.1,30.23,West,259,0.0,4.0,43,0.00,,---,0.00,VWS V14.00,2013-10-31 19:10:00,
2013-10-31 12:15:00,67.8,46.9,30.23,West,259,0.0,4.0,47,0.00,,---,0.00,VWS V14.00,2013-10-31 19:15:00,
2013-10-31 12:20:00,67.0,46.1,30.23,West,259,0.0,4.0,47,0.00,,---,0.00,VWS V14.00,2013-10-31 19:20:00,
2013-10-31 12:25:00,67.3,46.4,30.23,West,259,0.0,3.0,47,0.00,,---,0.00,VWS V14.00,2013-10-31 19:25:00,
2013-10-31 12:30:00,69.9,47.6,30.23,West,259,0.0,3.0,45,0.00,,---,0.00,VWS V14.00,2013-10-31 19:30:00,
2013-10-31 12:35:00,72.9,48.5,30.22,West,259,0.0,3.0,42,0.00,,---,0.00,VWS V14.00,2013-10-31 19:35:00,
2013-10-31 12:40:00,70.8,46.6,30.22,West,259,0.0,1.0,42,0.00,,---,0.00,VWS V14.00,2013-10-31 19:40:00,
2013-10-31 12:45:00,69.7,46.2,30.22,West,259,0.0,4.0,43,0.00,,---,0.00,VWS V14.00,2013-10-31 19:45:00,
2013-10-31 12:50:00,69.8,47.5,30.22,West,259,0.0,4.0,45,0.00,,---,0.00,VWS V14.00,2013-10-31 19:50:00,
2013-10-31 12:53:00,72.6,48.2,30.22,West,259,0.0,0.0,42,0.00,,---,0.00,VWS V14.00,2013-10-31 19:53:00,
2013-10-31 12:58:00,72.2,46.6,30.21,West,259,0.0,5.0,40,0.00,,---,0.00,VWS V14.00,2013-10-31 19:58:00,
2013-10-31 13:00:00,71.9,48.2,30.22,West,259,0.0,4.0,43,0.00,,---,0.00,VWS V14.00,2013-10-31 20:00:00,
2013-10-31 13:03:00,74.6,48.0,30.21,West,259,0.0,5.0,39,0.00,,---,0.00,VWS V14.00,2013-10-31 20:03:00,
2013-10-31 13:08:00,74.1,46.9,30.21,West,259,0.0,0.0,38,0.00,,---,0.00,VWS V14.00,2013-10-31 20:08:00,
2013-10-31 13:13:00,73.8,47.3,30.20,West,259,0.0,1.0,39,0.00,,---,0.00,VWS V14.00,2013-10-31 20:13:00,
2013-10-31 13:15:00,74.6,47.3,30.21,West,259,0.0,5.0,38,0.00,,---,0.00,VWS V14.00,2013-10-31 20:15:00,
2013-10-31 13:18:00,72.7,45.7,30.20,West,259,0.0,4.0,38,0.00,,---,0.00,VWS V14.00,2013-10-31 20:18:00,
2013-10-31 13:23:00,72.2,45.9,30.20,West,259,0.0,1.0,39,0.00,,---,0.00,VWS V14.00,2013-10-31 20:23:00,
2013-10-31 13:28:00,72.4,46.1,30.20,West,259,0.0,5.0,39,0.00,,---,0.00,VWS V14.00,2013-10-31 20:28:00,
2013-10-31 13:30:00,72.2,45.9,30.20,West,259,0.0,4.0,39,0.00,,---,0.00,VWS V14.00,2013-10-31 20:30:00,
2013-10-31 13:33:00,74.5,45.8,30.19,West,259,1.0,5.0,36,0.00,,---,0.00,VWS V14.00,2013-10-31 20:33:00,
2013-10-31 13:38:00,74.6,45.9,30.19,West,259,0.0,3.0,36,0.00,,---,0.00,VWS V14.00,2013-10-31 20:38:00,
2013-10-31 13:43:00,77.2,47.5,30.19,West,259,3.0,3.0,35,0.00,,---,0.00,VWS V14.00,2013-10-31 20:43:00,
2013-10-31 13:45:00,74.6,45.9,30.19,West,259,3.0,5.0,36,0.00,,---,0.00,VWS V14.00,2013-10-31 20:45:00,
2013-10-31 13:48:00,74.5,45.8,30.18,West,259,0.0,4.0,36,0.00,,---,0.00,VWS V14.00,2013-10-31 20:48:00,
2013-10-31 13:53:00,73.8,45.2,30.18,West,259,0.0,0.0,36,0.00,,---,0.00,VWS V14.00,2013-10-31 20:53:00,
2013-10-31 13:58:00,75.8,46.2,30.18,West,259,0.0,1.0,35,0.00,,---,0.00,VWS V14.00,2013-10-31 20:58:00,
2013-10-31 14:00:00,73.8,45.9,30.18,West,259,0.0,4.0,37,0.00,,---,0.00,VWS V14.00,2013-10-31 21:00:00,
2013-10-31 14:03:00,75.2,46.4,30.18,West,259,0.0,4.0,36,0.00,,---,0.00,VWS V14.00,2013-10-31 21:03:00,
2013-10-31 14:08:00,74.8,46.1,30.17,West,259,0.0,3.0,36,0.00,,---,0.00,VWS V14.00,2013-10-31 21:08:00,
2013-10-31 14:13:00,76.1,46.5,30.17,West,259,0.0,3.0,35,0.00,,---,0.00,VWS V14.00,2013-10-31 21:13:00,
2013-10-31 14:15:00,74.8,46.1,30.17,West,259,0.0,4.0,36,0.00,,---,0.00,VWS V14.00,2013-10-31 21:15:00,
2013-10-31 14:18:00,78.3,46.9,30.17,West,259,0.0,3.0,33,0.00,,---,0.00,VWS V14.00,2013-10-31 21:18:00,
2013-10-31 14:23:00,78.4,47.0,30.16,West,259,0.0,0.0,33,0.00,,---,0.00,VWS V14.00,2013-10-31 21:23:00,
2013-10-31 14:28:00,78.0,46.6,30.16,West,259,2.0,4.0,33,0.00,,---,0.00,VWS V14.00,2013-10-31 21:28:00,
2013-10-31 14:30:00,78.3,46.9,30.17,West,259,0.0,3.0,33,0.00,,---,0.00,VWS V14.00,2013-10-31 21:30:00,
2013-10-31 14:33:00,77.6,46.2,30.16,West,259,0.0,5.0,33,0.00,,---,0.00,VWS V14.00,2013-10-31 21:33:00,
2013-10-31 14:38:00,77.3,46.8,30.16,West,259,0.0,1.0,34,0.00,,---,0.00,VWS V14.00,2013-10-31 21:38:00,
2013-10-31 14:43:00,78.1,46.7,30.16,West,259,0.0,4.0,33,0.00,,---,0.00,VWS V14.00,2013-10-31 21:43:00,
2013-10-31 14:45:00,77.0,46.5,30.16,West,259,0.0,5.0,34,0.00,,---,0.00,VWS V14.00,2013-10-31 21:45:00,
2013-10-31 14:48:00,78.4,46.1,30.16,West,259,2.0,5.0,32,0.00,,---,0.00,VWS V14.00,2013-10-31 21:48:00,
2013-10-31 14:53:00,78.7,46.4,30.15,West,259,1.0,2.0,32,0.00,,---,0.00,VWS V14.00,2013-10-31 21:53:00,
2013-10-31 14:58:00,80.1,46.8,30.15,West,259,0.0,2.0,31,0.00,,---,0.00,VWS V14.00,2013-10-31 21:58:00,
2013-10-31 15:00:00,78.7,46.4,30.15,West,259,2.0,7.0,32,0.00,,---,0.00,VWS V14.00,2013-10-31 22:00:00,
2013-10-31 15:03:00,79.7,46.4,30.15,West,259,2.0,6.0,31,0.00,,---,0.00,VWS V14.00,2013-10-31 22:03:00,
2013-10-31 15:08:00,78.8,47.3,30.15,West,259,1.0,3.0,33,0.00,,---,0.00,VWS V14.00,2013-10-31 22:08:00,
2013-10-31 15:13:00,77.6,47.8,30.15,West,259,0.0,8.0,35,0.00,,---,0.00,VWS V14.00,2013-10-31 22:13:00,
2013-10-31 15:15:00,79.1,46.7,30.15,West,259,1.0,7.0,32,0.00,,---,0.00,VWS V14.00,2013-10-31 22:15:00,
2013-10-31 15:18:00,76.8,47.8,30.15,WSW,254,6.0,8.0,36,0.00,,---,0.00,VWS V14.00,2013-10-31 22:18:00,
2013-10-31 15:23:00,76.5,46.8,30.15,WSW,254,3.0,5.0,35,0.00,,---,0.00,VWS V14.00,2013-10-31 22:23:00,
2013-10-31 15:28:00,76.0,47.2,30.15,WSW,251,2.0,12.0,36,0.00,,---,0.00,VWS V14.00,2013-10-31 22:28:00,
2013-10-31 15:30:00,76.6,46.9,30.15,WSW,254,0.0,8.0,35,0.00,,---,0.00,VWS V14.00,2013-10-31 22:30:00,
2013-10-31 15:33:00,75.8,47.0,30.15,WSW,251,2.0,12.0,36,0.00,,---,0.00,VWS V14.00,2013-10-31 22:33:00,
2013-10-31 15:38:00,76.1,46.5,30.15,West,264,9.0,9.0,35,0.00,,---,0.00,VWS V14.00,2013-10-31 22:38:00,
2013-10-31 15:43:00,76.1,46.5,30.15,West,264,4.0,10.0,35,0.00,,---,0.00,VWS V14.00,2013-10-31 22:43:00,
2013-10-31 15:45:00,76.1,47.2,30.15,WSW,254,2.0,12.0,36,0.00,,---,0.00,VWS V14.00,2013-10-31 22:45:00,
2013-10-31 15:48:00,76.1,45.7,30.15,West,265,2.0,10.0,34,0.00,,---,0.00,VWS V14.00,2013-10-31 22:48:00,
2013-10-31 15:53:00,76.0,45.6,30.15,West,263,3.0,5.0,34,0.00,,---,0.00,VWS V14.00,2013-10-31 22:53:00,
2013-10-31 15:58:00,76.1,46.5,30.15,West,263,5.0,6.0,35,0.00,,---,0.00,VWS V14.00,2013-10-31 22:58:00,
2013-10-31 16:00:00,76.0,45.6,30.15,West,263,5.0,10.0,34,0.00,,---,0.00,VWS V14.00,2013-10-31 23:00:00,
2013-10-31 16:03:00,76.0,45.6,30.14,West,264,6.0,8.0,34,0.00,,---,0.00,VWS V14.00,2013-10-31 23:03:00,
2013-10-31 16:08:00,76.1,44.9,30.14,West,264,4.0,4.0,33,0.00,,---,0.00,VWS V14.00,2013-10-31 23:08:00,
2013-10-31 16:13:00,76.5,45.3,30.14,West,264,3.0,6.0,33,0.00,,---,0.00,VWS V14.00,2013-10-31 23:13:00,
2013-10-31 16:15:00,76.0,44.8,30.14,West,264,0.0,8.0,33,0.00,,---,0.00,VWS V14.00,2013-10-31 23:15:00,
2013-10-31 16:18:00,76.3,45.1,30.14,West,264,4.0,7.0,33,0.00,,---,0.00,VWS V14.00,2013-10-31 23:18:00,
2013-10-31 16:23:00,75.8,45.5,30.14,West,264,1.0,5.0,34,0.00,,---,0.00,VWS V14.00,2013-10-31 23:23:00,
2013-10-31 16:28:00,75.5,45.2,30.14,West,264,3.0,5.0,34,0.00,,---,0.00,VWS V14.00,2013-10-31 23:28:00,
2013-10-31 16:30:00,75.8,44.7,30.14,West,264,1.0,7.0,33,0.00,,---,0.00,VWS V14.00,2013-10-31 23:30:00,
2013-10-31 16:33:00,75.3,45.0,30.14,West,264,3.0,7.0,34,0.00,,---,0.00,VWS V14.00,2013-10-31 23:33:00,
2013-10-31 16:38:00,75.4,45.9,30.14,West,264,2.0,5.0,35,0.00,,---,0.00,VWS V14.00,2013-10-31 23:38:00,
2013-10-31 16:43:00,75.0,46.3,30.14,West,264,0.0,5.0,36,0.00,,---,0.00,VWS V14.00,2013-10-31 23:43:00,
2013-10-31 16:45:00,75.4,45.9,30.14,West,264,0.0,7.0,35,0.00,,---,0.00,VWS V14.00,2013-10-31 23:45:00,
2013-10-31 16:48:00,74.1,46.2,30.14,West,263,0.0,5.0,37,0.00,,---,0.00,VWS V14.00,2013-10-31 23:48:00,
2013-10-31 16:53:00,73.2,46.1,30.14,West,263,0.0,3.0,38,0.00,,---,0.00,VWS V14.00,2013-10-31 23:53:00,
2013-10-31 16:58:00,72.6,46.2,30.14,West,263,1.0,6.0,39,0.00,,---,0.00,VWS V14.00,2013-10-31 23:58:00,
2013-10-31 17:00:00,73.3,46.2,30.14,West,263,0.0,5.0,38,0.00,,---,0.00,VWS V14.00,2013-11-01 00:00:00,
2013-10-31 17:03:00,72.1,45.8,30.14,West,263,0.0,6.0,39,0.00,,---,0.00,VWS V14.00,2013-11-01 00:03:00,
2013-10-31 17:08:00,71.7,45.5,30.14,West,263,0.0,1.0,39,0.00,,---,0.00,VWS V14.00,2013-11-01 00:08:00,
2013-10-31 17:13:00,71.6,46.0,30.14,West,263,1.0,5.0,40,0.00,,---,0.00,VWS V14.00,2013-11-01 00:13:00,
2013-10-31 17:15:00,71.8,46.2,30.14,West,263,0.0,6.0,40,0.00,,---,0.00,VWS V14.00,2013-11-01 00:15:00,
2013-10-31 17:18:00,71.2,45.0,30.14,West,263,1.0,5.0,39,0.00,,---,0.00,VWS V14.00,2013-11-01 00:18:00,
2013-10-31 17:23:00,70.6,45.1,30.14,West,263,0.0,1.0,40,0.00,,---,0.00,VWS V14.00,2013-11-01 00:23:00,
2013-10-31 17:28:00,70.3,45.5,30.14,West,263,1.0,4.0,41,0.00,,---,0.00,VWS V14.00,2013-11-01 00:28:00,
2013-10-31 17:30:00,70.7,45.2,30.14,West,263,0.0,5.0,40,0.00,,---,0.00,VWS V14.00,2013-11-01 00:30:00,
2013-10-31 17:33:00,70.2,45.4,30.14,West,263,0.0,4.0,41,0.00,,---,0.00,VWS V14.00,2013-11-01 00:33:00,
2013-10-31 17:38:00,69.8,45.7,30.14,West,263,0.0,0.0,42,0.00,,---,0.00,VWS V14.00,2013-11-01 00:38:00,
2013-10-31 17:43:00,69.0,45.6,30.14,West,263,0.0,4.0,43,0.00,,---,0.00,VWS V14.00,2013-11-01 00:43:00,
2013-10-31 17:45:00,69.8,45.7,30.14,West,263,0.0,4.0,42,0.00,,---,0.00,VWS V14.00,2013-11-01 00:45:00,
2013-10-31 17:48:00,68.4,45.0,30.14,West,263,0.0,4.0,43,0.00,,---,0.00,VWS V14.00,2013-11-01 00:48:00,
2013-10-31 17:53:00,67.9,45.2,30.14,West,263,0.0,0.0,44,0.00,,---,0.00,VWS V14.00,2013-11-01 00:53:00,
2013-10-31 17:58:00,67.5,44.8,30.14,West,263,0.0,3.0,44,0.00,,---,0.00,VWS V14.00,2013-11-01 00:58:00,
2013-10-31 18:00:00,68.0,44.7,30.14,West,263,0.0,5.0,43,0.00,,---,0.00,VWS V14.00,2013-11-01 01:00:00,
2013-10-31 18:03:00,66.3,44.3,30.14,West,263,0.0,3.0,45,0.00,,---,0.00,VWS V14.00,2013-11-01 01:03:00,
2013-10-31 18:08:00,65.6,44.3,30.14,West,263,0.0,0.0,46,0.00,,---,0.00,VWS V14.00,2013-11-01 01:08:00,
2013-10-31 18:13:00,64.8,44.7,30.14,West,263,0.0,1.0,48,0.00,,---,0.00,VWS V14.00,2013-11-01 01:13:00,
2013-10-31 18:15:00,65.7,44.4,30.14,West,263,0.0,3.0,46,0.00,,---,0.00,VWS V14.00,2013-11-01 01:15:00,
2013-10-31 18:18:00,64.1,44.0,30.15,West,263,0.0,4.0,48,0.00,,---,0.00,VWS V14.00,2013-11-01 01:18:00,
2013-10-31 18:23:00,63.6,44.1,30.15,West,263,0.0,0.0,49,0.00,,---,0.00,VWS V14.00,2013-11-01 01:23:00,
2013-10-31 18:28:00,63.0,44.1,30.15,West,263,0.0,3.0,50,0.00,,---,0.00,VWS V14.00,2013-11-01 01:28:00,
2013-10-31 18:30:00,63.6,44.1,30.15,West,263,0.0,4.0,49,0.00,,---,0.00,VWS V14.00,2013-11-01 01:30:00,
2013-10-31 18:33:00,62.6,44.2,30.15,West,263,0.0,3.0,51,0.00,,---,0.00,VWS V14.00,2013-11-01 01:33:00,
2013-10-31 18:38:00,62.3,44.0,30.15,West,263,0.0,0.0,51,0.00,,---,0.00,VWS V14.00,2013-11-01 01:38:00,
2013-10-31 18:43:00,61.9,43.6,30.15,West,263,0.0,0.0,51,0.00,,---,0.00,VWS V14.00,2013-11-01 01:43:00,
2013-10-31 18:45:00,62.3,44.0,30.15,West,263,0.0,3.0,51,0.00,,---,0.00,VWS V14.00,2013-11-01 01:45:00,
2013-10-31 18:48:00,61.5,43.7,30.15,West,263,0.0,3.0,52,0.00,,---,0.00,VWS V14.00,2013-11-01 01:48:00,
2013-10-31 18:53:00,61.2,44.0,30.15,West,263,0.0,2.0,53,0.00,,---,0.00,VWS V14.00,2013-11-01 01:53:00,
2013-10-31 18:58:00,60.8,43.6,30.16,West,263,0.0,2.0,53,0.00,,---,0.00,VWS V14.00,2013-11-01 01:58:00,
2013-10-31 19:00:00,61.2,44.0,30.15,West,263,2.0,4.0,53,0.00,,---,0.00,VWS V14.00,2013-11-01 02:00:00,
2013-10-31 19:03:00,60.5,43.8,30.16,West,263,0.0,2.0,54,0.00,,---,0.00,VWS V14.00,2013-11-01 02:03:00,
2013-10-31 19:08:00,60.2,43.5,30.16,West,263,0.0,0.0,54,0.00,,---,0.00,VWS V14.00,2013-11-01 02:08:00,
2013-10-31 19:13:00,59.8,43.6,30.16,West,263,0.0,1.0,55,0.00,,---,0.00,VWS V14.00,2013-11-01 02:13:00,
2013-10-31 19:15:00,60.3,43.6,30.16,West,263,0.0,2.0,54,0.00,,---,0.00,VWS V14.00,2013-11-01 02:15:00,
2013-10-31 19:18:00,59.4,43.7,30.16,West,263,0.0,2.0,56,0.00,,---,0.00,VWS V14.00,2013-11-01 02:18:00,
2013-10-31 19:23:00,59.1,43.9,30.16,West,263,0.0,0.0,57,0.00,,---,0.00,VWS V14.00,2013-11-01 02:23:00,
2013-10-31 19:28:00,58.9,43.7,30.16,West,263,0.0,1.0,57,0.00,,---,0.00,VWS V14.00,2013-11-01 02:28:00,
2013-10-31 19:30:00,59.2,44.0,30.16,West,263,0.0,2.0,57,0.00,,---,0.00,VWS V14.00,2013-11-01 02:30:00,
2013-10-31 19:33:00,58.6,43.9,30.16,West,263,0.0,1.0,58,0.00,,---,0.00,VWS V14.00,2013-11-01 02:33:00,
2013-10-31 19:38:00,58.4,43.7,30.16,West,263,0.0,0.0,58,0.00,,---,0.00,VWS V14.00,2013-11-01 02:38:00,
2013-10-31 19:43:00,58.3,43.6,30.16,West,263,0.0,0.0,58,0.00,,---,0.00,VWS V14.00,2013-11-01 02:43:00,
2013-10-31 19:45:00,58.4,43.7,30.16,West,263,0.0,1.0,58,0.00,,---,0.00,VWS V14.00,2013-11-01 02:45:00,
2013-10-31 19:48:00,58.0,43.8,30.16,West,263,0.0,1.0,59,0.00,,---,0.00,VWS V14.00,2013-11-01 02:48:00,
2013-10-31 19:53:00,57.8,43.6,30.16,West,263,0.0,0.0,59,0.00,,---,0.00,VWS V14.00,2013-11-01 02:53:00,
2013-10-31 19:58:00,57.5,43.7,30.16,West,263,0.0,0.0,60,0.00,,---,0.00,VWS V14.00,2013-11-01 02:58:00,
2013-10-31 20:00:00,57.8,43.6,30.16,West,263,0.0,1.0,59,0.00,,---,0.00,VWS V14.00,2013-11-01 03:00:00,
2013-10-31 20:03:00,57.3,44.0,30.16,West,263,0.0,1.0,61,0.00,,---,0.00,VWS V14.00,2013-11-01 03:03:00,
2013-10-31 20:08:00,57.0,43.7,30.16,West,263,0.0,0.0,61,0.00,,---,0.00,VWS V14.00,2013-11-01 03:08:00,
2013-10-31 20:13:00,56.7,43.8,30.16,West,263,0.0,2.0,62,0.00,,---,0.00,VWS V14.00,2013-11-01 03:13:00,
2013-10-31 20:15:00,57.0,43.7,30.16,West,263,0.0,1.0,61,0.00,,---,0.00,VWS V14.00,2013-11-01 03:15:00,
2013-10-31 20:18:00,56.5,43.7,30.16,West,263,0.0,2.0,62,0.00,,---,0.00,VWS V14.00,2013-11-01 03:18:00,
2013-10-31 20:23:00,56.3,43.5,30.16,West,263,0.0,0.0,62,0.00,,---,0.00,VWS V14.00,2013-11-01 03:23:00,
2013-10-31 20:28:00,56.2,43.4,30.16,West,263,0.0,0.0,62,0.00,,---,0.00,VWS V14.00,2013-11-01 03:28:00,
2013-10-31 20:30:00,56.4,43.6,30.16,West,263,0.0,2.0,62,0.00,,---,0.00,VWS V14.00,2013-11-01 03:30:00,
2013-10-31 20:33:00,56.0,43.6,30.16,West,263,0.0,0.0,63,0.00,,---,0.00,VWS V14.00,2013-11-01 03:33:00,
2013-10-31 20:38:00,55.8,43.8,30.16,West,263,0.0,0.0,64,0.00,,---,0.00,VWS V14.00,2013-11-01 03:38:00,
2013-10-31 20:43:00,55.5,43.5,30.17,West,263,0.0,0.0,64,0.00,,---,0.00,VWS V14.00,2013-11-01 03:43:00,
2013-10-31 20:45:00,55.8,43.8,30.16,West,263,0.0,0.0,64,0.00,,---,0.00,VWS V14.00,2013-11-01 03:45:00,
2013-10-31 20:47:00,55.3,43.3,30.16,West,263,0.0,0.0,64,0.00,,---,0.00,VWS V14.00,2013-11-01 03:47:00,
2013-10-31 20:53:00,55.2,43.7,30.17,West,263,0.0,0.0,65,0.00,,---,0.00,VWS V14.00,2013-11-01 03:53:00,
2013-10-31 20:58:00,55.0,43.5,30.17,West,263,0.0,0.0,65,0.00,,---,0.00,VWS V14.00,2013-11-01 03:58:00,
2013-10-31 21:00:00,55.2,43.7,30.16,West,263,0.0,0.0,65,0.00,,---,0.00,VWS V14.00,2013-11-01 04:00:00,
2013-10-31 21:01:00,54.9,43.4,30.17,West,263,0.0,0.0,65,0.00,,---,0.00,VWS V14.00,2013-11-01 04:01:00,
2013-10-31 21:02:00,54.9,43.4,30.17,West,263,0.0,0.0,65,0.00,,---,0.00,VWS V14.00,2013-11-01 04:02:00,
2013-10-31 21:07:00,54.7,43.6,30.17,West,263,0.0,0.0,66,0.00,,---,0.00,VWS V14.00,2013-11-01 04:07:00,
2013-10-31 21:12:00,54.5,43.4,30.17,West,263,0.0,0.0,66,0.00,,---,0.00,VWS V14.00,2013-11-01 04:12:00,
2013-10-31 21:15:00,54.7,43.6,30.17,West,263,0.0,0.0,66,0.00,,---,0.00,VWS V14.00,2013-11-01 04:15:00,
2013-10-31 21:16:00,54.3,43.6,30.17,West,263,0.0,0.0,67,0.00,,---,0.00,VWS V14.00,2013-11-01 04:16:00,
2013-10-31 21:21:00,54.1,43.4,30.17,West,263,0.0,0.0,67,0.00,,---,0.00,VWS V14.00,2013-11-01 04:21:00,
2013-10-31 21:26:00,53.9,43.6,30.17,West,263,0.0,0.0,68,0.00,,---,0.00,VWS V14.00,2013-11-01 04:26:00,
2013-10-31 21:30:00,54.1,43.4,30.17,West,263,0.0,0.0,67,0.00,,---,0.00,VWS V14.00,2013-11-01 04:30:00,
2013-10-31 21:31:00,53.8,43.5,30.17,West,263,0.0,0.0,68,0.00,,---,0.00,VWS V14.00,2013-11-01 04:31:00,
2013-10-31 21:36:00,53.7,43.4,30.17,West,263,0.0,0.0,68,0.00,,---,0.00,VWS V14.00,2013-11-01 04:36:00,
2013-10-31 21:41:00,53.6,43.3,30.17,West,263,0.0,0.0,68,0.00,,---,0.00,VWS V14.00,2013-11-01 04:41:00,
2013-10-31 21:45:00,53.7,43.4,30.17,West,263,0.0,0.0,68,0.00,,---,0.00,VWS V14.00,2013-11-01 04:45:00,
2013-10-31 21:46:00,53.5,43.2,30.17,West,263,0.0,0.0,68,0.00,,---,0.00,VWS V14.00,2013-11-01 04:46:00,
2013-10-31 21:51:00,53.3,43.0,30.18,West,263,0.0,0.0,68,0.00,,---,0.00,VWS V14.00,2013-11-01 04:51:00,
2013-10-31 21:56:00,53.1,42.8,30.18,West,263,0.0,0.0,68,0.00,,---,0.00,VWS V14.00,2013-11-01 04:56:00,
2013-10-31 22:00:00,53.3,43.0,30.18,West,263,0.0,0.0,68,0.00,,---,0.00,VWS V14.00,2013-11-01 05:00:00,
2013-10-31 22:01:00,52.9,42.6,30.18,West,263,0.0,0.0,68,0.00,,---,0.00,VWS V14.00,2013-11-01 05:01:00,
2013-10-31 22:06:00,52.7,42.8,30.18,West,263,0.0,0.0,69,0.00,,---,0.00,VWS V14.00,2013-11-01 05:06:00,
2013-10-31 22:11:00,52.5,42.6,30.18,West,263,0.0,0.0,69,0.00,,---,0.00,VWS V14.00,2013-11-01 05:11:00,
2013-10-31 22:15:00,52.7,42.8,30.18,West,263,0.0,0.0,69,0.00,,---,0.00,VWS V14.00,2013-11-01 05:15:00,
2013-10-31 22:16:00,52.3,42.5,30.18,West,263,0.0,0.0,69,0.00,,---,0.00,VWS V14.00,2013-11-01 05:16:00,
2013-10-31 22:21:00,52.2,42.3,30.18,West,263,0.0,0.0,69,0.00,,---,0.00,VWS V14.00,2013-11-01 05:21:00,
2013-10-31 22:26:00,52.1,42.6,30.18,West,263,0.0,0.0,70,0.00,,---,0.00,VWS V14.00,2013-11-01 05:26:00,
2013-10-31 22:30:00,52.2,42.3,30.18,West,263,0.0,0.0,69,0.00,,---,0.00,VWS V14.00,2013-11-01 05:30:00,
2013-10-31 22:31:00,51.9,42.4,30.18,West,263,0.0,0.0,70,0.00,,---,0.00,VWS V14.00,2013-11-01 05:31:00,
2013-10-31 22:36:00,51.8,42.3,30.18,West,263,0.0,0.0,70,0.00,,---,0.00,VWS V14.00,2013-11-01 05:36:00,
2013-10-31 22:41:00,51.7,42.2,30.18,West,263,0.0,0.0,70,0.00,,---,0.00,VWS V14.00,2013-11-01 05:41:00,
2013-10-31 22:45:00,51.5,42.0,30.18,West,263,0.0,0.0,70,0.00,,---,0.00,VWS V14.00,2013-11-01 05:45:00,
2013-10-31 22:50:00,51.4,42.0,30.18,West,263,0.0,0.0,70,0.00,,---,0.00,VWS V14.00,2013-11-01 05:50:00,
2013-10-31 22:55:00,51.2,41.8,30.18,West,263,0.0,0.0,70,0.00,,---,0.00,VWS V14.00,2013-11-01 05:55:00,
2013-10-31 23:00:00,51.0,41.9,30.18,West,263,0.0,0.0,71,0.00,,---,0.00,VWS V14.00,2013-11-01 06:00:00,
2013-10-31 23:05:00,50.9,41.8,30.18,West,263,0.0,0.0,71,0.00,,---,0.00,VWS V14.00,2013-11-01 06:05:00,
2013-10-31 23:10:00,50.7,41.7,30.18,West,263,0.0,0.0,71,0.00,,---,0.00,VWS V14.00,2013-11-01 06:10:00,
2013-10-31 23:15:00,50.5,41.5,30.18,West,263,0.0,0.0,71,0.00,,---,0.00,VWS V14.00,2013-11-01 06:15:00,
2013-10-31 23:20:00,50.3,41.3,30.18,West,263,0.0,0.0,71,0.00,,---,0.00,VWS V14.00,2013-11-01 06:20:00,
2013-10-31 23:25:00,50.1,41.1,30.18,West,263,0.0,0.0,71,0.00,,---,0.00,VWS V14.00,2013-11-01 06:25:00,
2013-10-31 23:30:00,50.0,41.3,30.18,West,263,0.0,0.0,72,0.00,,---,0.00,VWS V14.00,2013-11-01 06:30:00,
2013-10-31 23:35:00,49.8,41.2,30.18,West,263,0.0,0.0,72,0.00,,---,0.00,VWS V14.00,2013-11-01 06:35:00,
2013-10-31 23:40:00,49.6,41.0,30.18,West,263,0.0,0.0,72,0.00,,---,0.00,VWS V14.00,2013-11-01 06:40:00,
2013-10-31 23:45:00,49.5,40.9,30.18,West,263,0.0,0.0,72,0.00,,---,0.00,VWS V14.00,2013-11-01 06:45:00,
2013-10-31 23:50:00,49.3,41.0,30.18,West,263,0.0,0.0,73,0.00,,---,0.00,VWS V14.00,2013-11-01 06:50:00,